TimePDT,TemperatureF,Dew PointF,Humidity,Sea Level PressureIn,VisibilityMPH,Wind Direction,Wind SpeedMPH,Gust SpeedMPH,PrecipitationIn,Events,Conditions,WindDirDegrees,DateUTC
12:53 AM,46.9,39.0,74,29.85,10.0,South,10.4,19.6,0.00,Rain,Light Rain,180,2013-04-06 07:53:00
1:53 AM,46.0,41.0,83,29.83,10.0,South,9.2,-,0.00,Rain,Light Rain,180,2013-04-06 08:53:00
2:53 AM,45.0,42.1,90,29.82,10.0,South,9.2,-,0.01,Rain,Light Rain,170,2013-04-06 09:53:00
3:30 AM,44.6,42.8,93,29.81,10.0,South,9.2,-,0.00,Rain,Light Rain,170,2013-04-06 10:30:00
3:53 AM,45.0,43.0,93,29.82,6.0,SSE,11.5,-,0.02,Rain,Light Rain,160,2013-04-06 10:53:00
4:53 AM,45.0,42.1,90,29.80,10.0,SSE,9.2,-,0.04,Rain,Light Rain,160,2013-04-06 11:53:00
5:53 AM,45.0,42.1,90,29.79,10.0,South,10.4,-,0.01,Rain,Light Rain,170,2013-04-06 12:53:00
6:53 AM,45.0,42.1,90,29.79,10.0,South,11.5,-,0.00,,Overcast,170,2013-04-06 13:53:00
7:53 AM,46.9,41.0,80,29.79,10.0,SSW,23.0,31.1,N/A,,Mostly Cloudy,200,2013-04-06 14:53:00
8:53 AM,46.0,39.9,79,29.80,10.0,SSW,20.7,28.8,N/A,,Mostly Cloudy,200,2013-04-06 15:53:00
9:53 AM,48.9,37.9,66,29.81,10.0,SW,21.9,31.1,N/A,,Mostly Cloudy,230,2013-04-06 16:53:00
10:53 AM,51.1,37.0,59,29.83,10.0,SW,23.0,-,N/A,,Mostly Cloudy,220,2013-04-06 17:53:00
11:53 AM,54.0,36.0,51,29.84,10.0,SW,27.6,34.5,N/A,,Mostly Cloudy,230,2013-04-06 18:53:00
12:53 PM,52.0,37.0,57,29.84,10.0,SW,20.7,33.4,0.00,,Mostly Cloudy,220,2013-04-06 19:53:00
1:53 PM,55.0,34.0,45,29.83,10.0,SW,28.8,35.7,0.00,,Mostly Cloudy,220,2013-04-06 20:53:00
2:53 PM,52.0,30.0,43,29.84,10.0,SSW,27.6,40.3,0.00,Rain,Light Rain,210,2013-04-06 21:53:00
3:53 PM,52.0,34.0,50,29.83,10.0,SW,23.0,31.1,0.00,,Overcast,230,2013-04-06 22:53:00
4:53 PM,53.6,33.8,47,29.83,10.0,SW,19.6,33.4,N/A,,Overcast,220,2013-04-06 23:53:00
5:53 PM,51.1,28.9,43,29.84,10.0,SW,23.0,-,N/A,,Mostly Cloudy,230,2013-04-07 00:53:00
6:53 PM,48.9,30.0,48,29.85,10.0,SW,17.3,-,N/A,,Mostly Cloudy,220,2013-04-07 01:53:00
7:53 PM,46.0,32.0,58,29.86,10.0,West,8.1,-,N/A,,Overcast,260,2013-04-07 02:53:00
8:53 PM,46.9,32.0,56,29.85,10.0,SW,11.5,-,N/A,,Overcast,220,2013-04-07 03:53:00
9:53 PM,45.0,32.0,60,29.85,10.0,SSW,12.7,-,N/A,,Overcast,200,2013-04-07 04:53:00
10:53 PM,45.0,33.1,63,29.83,10.0,SSW,15.0,-,N/A,,Overcast,200,2013-04-07 05:53:00
11:53 PM,44.1,33.1,65,29.81,10.0,SSW,15.0,21.9,N/A,,Overcast,200,2013-04-07 06:53:00